Location: Keppel Henge
(44.7900°N, 80.9447°W)
Time: 22:01:45
(UTC-04:00)

N. Korean satellite - Pass Details

Date: 09 October 2017
Orbit: 459 x 517 km, 97.2° (Epoch: 23 October)

Event Time Altitude Azimuth Distance (km) Brightness Sun altitude
Rises 19:46:40 0° 182° (S) 2,570 10.2 -11.0°
Reaches altitude 10° 19:48:50 10° 189° (S) 1,683 9.4 -11.4°
Maximum altitude 19:52:17 42° 261° (W) 704 8.0 -12.0°
Drops below altitude 10° 19:55:42 10° 334° (NNW) 1,665 9.7 -12.6°
Sets 19:57:50 0° 342° (NNW) 2,539 10.5 -13.0°
